This is the latest recevied weather packets stored in our database for station/object K7TSD. If no packets are shown the sender has not sent any weather packets the latest 10 day(s).
| Time | Temp. | Humidity | Pressure | Rain* | Wind** | Luminosity | Snow |
|---|---|---|---|---|---|---|---|
| 1777520181 | 3.89° C | 74% | 1020.2 hPa | 0 mm | - | 0 W/m² | - |
| 1777519879 | 3.89° C | 73% | 1020.1 hPa | 0 mm | - | 0 W/m² | - |
| 1777519576 | 3.89° C | 73% | 1020.2 hPa | 0 mm | - | 0 W/m² | - |
| 1777519272 | 3.89° C | 72% | 1020.1 hPa | 0 mm | - | 0 W/m² | - |
| 1777518968 | 3.33° C | 75% | 1020 hPa | 0 mm | - | 0 W/m² | - |
| 1777518665 | 3.33° C | 74% | 1019.9 hPa | 0 mm | - | 0 W/m² | - |
| 1777518362 | 3.33° C | 74% | 1019.7 hPa | 0 mm | - | 0 W/m² | - |
| 1777518057 | 3.33° C | 74% | 1019.6 hPa | 0 mm | - | 0 W/m² | - |
| 1777517754 | 3.33° C | 75% | 1019.7 hPa | 0 mm | - | 0 W/m² | - |
| 1777517450 | 3.33° C | 74% | 1019.7 hPa | 0 mm | - | 0 W/m² | - |
| 1777517149 | 3.89° C | 73% | 1019.3 hPa | 0 mm | - | 0 W/m² | - |
| 1777516847 | 3.89° C | 73% | 1019.5 hPa | 0 mm | - | 0 W/m² | - |
| 1777516543 | 3.89° C | 73% | 1019.3 hPa | 0 mm | - | 0 W/m² | - |
| 1777516239 | 3.89° C | 73% | 1019.3 hPa | 0 mm | - | 0 W/m² | - |
| 1777515935 | 4.44° C | 72% | 1019.3 hPa | 0 mm | - | 0 W/m² | - |
| 1777515632 | 4.44° C | 71% | 1018.9 hPa | 0 mm | - | 0 W/m² | - |
| 1777515329 | 4.44° C | 72% | 1018.9 hPa | 0 mm | - | 0 W/m² | - |
| 1777515019 | 5° C | 69% | 1019 hPa | 0 mm | - | 2 W/m² | - |
| 1777514716 | 5.56° C | 69% | 1019.2 hPa | 0 mm | - | 4 W/m² | - |
| 1777514414 | 5° C | 68% | 1019 hPa | 0 mm | - | 6 W/m² | - |
| 1777514110 | 5.56° C | 67% | 1019 hPa | 0 mm | - | 9 W/m² | - |
| 1777513807 | 5.56° C | 68% | 1019.2 hPa | 0 mm | - | 12 W/m² | - |
| 1777513504 | 6.11° C | 67% | 1018.8 hPa | 0 mm | - | 18 W/m² | - |
| 1777513201 | 6.11° C | 68% | 1018.7 hPa | 0 mm | - | 27 W/m² | - |
| 1777512896 | 6.11° C | 67% | 1018.8 hPa | 0 mm | - | 33 W/m² | - |
* Rain latest hour (hover to see other rain measurements)
** Current wind speed in m/s (hover to see current wind gust speed)